RH
30 23 21 19 18 18 19 19 18 19 20 20 22 32 49 45 36 54 56 40 54 57 81 73 71 72 50 44 45 54 42 44 62 61 66 67 84 88 73 62 63 66 72 68 67
26 23 20 19 22 22 22 20 19 22 22 26 26 24 21 25 35 45 38 52 54 44 44 44 51 56 53 47 42 54 66 48 76 70 62 63 71 77 83 72 59 66 70 75 75
21 22 22 24 27 29 27 32 28 32 33 29 23 24 29 30 29 29 32 27 29 28 47 50 45 35 34 40 39 42 54 100 74 82 82 60 78 61 72 77 73 62 67 74 70
22 22 24 30 37 42 38 32 30 34 32 35 32 27 29 27 29 25 27 26 23 23 22 25 39 33 40 28 41 38 44 75 100 87 100 84 65 70 56 61 71 72 62 65 77
20 21 24 32 59 48 49 41 34 31 34 27 31 30 27 26 26 22 17 15 15 16 14 14 11 12 11 17 18 26 40 43 60 68 89 86 86 70 61 62 56 66 69 62 67
21 22 23 30 34 61 46 54 36 48 36 29 29 31 26 23 21 18 16 12 9 8 7 8 9 10 8 10 11 23 23 33 40 56 79 79 77 77 72 64 60 50 55 68 65
27 31 28 29 34 47 47 67 47 50 42 39 35 32 31 24 17 15 13 10 8 9 9 9 9 9 8 8 10 14 15 23 32 35 46 70 68 67 72 76 61 52 48 52 63
42 41 35 31 38 44 49 55 60 50 44 43 42 32 25 19 15 13 10 9 8 8 9 8 8 8 7 8 9 11 11 11 19 36 38 45 57 69 60 64 71 62 49 46 48
53 42 35 38 44 36 47 50 57 46 46 40 35 32 23 19 14 11 9 9 8 7 7 7 7 8 7 7 8 10 11 13 14 20 29 35 47 52 54 50 55 70 60 60 48
55 39 38 59 56 32 55 47 54 48 56 38 34 29 20 15 10 9 8 8 7 7 6 7 7 7 7 8 8 10 12 13 13 14 24 30 35 37 40 44 41 45 68 62 64
56 40 41 60 57 43 58 48 48 44 50 32 32 27 20 14 10 9 8 7 7 7 6 7 6 8 9 9 9 9 10 12 13 13 15 22 29 30 39 39 37 38 39 62 64
69 39 51 68 64 65 50 37 47 40 42 27 29 21 14 10 9 8 7 7 6 6 6 7 8 8 8 9 9 9 10 11 12 11 14 14 19 22 34 41 38 36 35 39 55
69 49 51 56 71 65 32 44 43 45 49 31 25 16 12 9 9 8 7 6 6 6 6 7 7 8 9 9 10 10 10 10 11 12 13 13 15 17 25 34 42 39 36 43 38
63 53 58 62 68 62 41 44 36 51 52 27 23 16 12 10 8 7 6 6 6 6 6 7 7 8 9 9 10 11 12 12 11 12 12 13 14 14 19 26 31 38 41 38 37
73 49 52 55 60 70 36 54 40 53 44 34 24 17 12 10 8 6 6 6 6 7 7 7 8 9 10 11 11 11 12 13 12 12 12 12 13 14 14 15 20 27 34 39 40
63 61 55 62 61 51 38 40 35 47 42 40 22 15 11 10 8 8 8 7 7 8 8 8 8 10 11 11 11 11 11 13 14 12 12 12 12 12 14 15 14 16 22 27 30
74 74 66 58 76 57 48 39 52 44 39 39 25 14 11 10 9 8 8 8 8 9 10 9 10 11 12 12 12 12 13 14 12 12 12 13 12 12 15 15 15 15 16 18 21
78 74 75 78 77 69 52 51 49 34 41 31 22 12 11 11 10 9 9 9 10 9 9 10 10 12 13 14 14 13 12 13 14 16 17 16 15 14 18 15 15 16 17 17 18
93 79 63 96 86 70 63 45 34 28 39 31 20 12 12 12 10 9 10 10 10 10 9 11 11 12 14 15 15 15 14 12 14 15 16 16 16 18 19 17 17 16 16 17 17
98 72 73 97 90 81 64 50 36 31 39 29 18 12 13 13 11 10 11 10 10 10 10 11 13 13 15 16 16 16 15 14 14 14 16 17 16 16 17 18 18 19 19 19 19
73 70 80 96 93 84 63 50 37 38 39 28 17 12 13 13 11 10 12 10 11 11 11 11 12 14 17 17 16 16 17 17 15 14 15 16 16 17 18 18 18 18 17 17 17
65 84 86 100 99 79 58 48 39 35 40 27 17 13 13 13 11 11 11 12 12 13 13 12 14 15 16 18 18 17 17 18 17 16 15 15 16 17 17 18 18 18 18 18 18
94 94 96 97 97 84 54 46 45 34 40 26 17 13 13 12 11 10 11 12 13 14 15 12 14 15 16 18 20 19 18 18 18 17 15 15 16 16 16 17 18 20 21 21 20
85 93 100 98 92 84 59 52 39 35 39 26 16 15 13 12 12 11 11 11 12 12 15 13 13 16 16 17 18 19 20 20 18 17 15 15 16 17 18 18 20 23 22 21 20
91 98 99 91 88 84 57 49 34 32 35 25 16 16 13 11 11 11 11 10 11 12 15 13 12 15 17 17 19 20 21 21 20 20 18 17 16 17 18 19 20 22 22 22 21
87 96 99 93 83 90 62 46 34 30 30 24 15 16 13 11 10 10 10 10 11 13 15 13 11 12 15 18 19 20 20 21 20 19 19 18 17 17 17 17 17 18 20 21 20
82 88 99 91 83 91 59 49 35 30 27 22 14 15 13 11 10 10 10 10 12 13 14 14 12 12 14 16 18 20 20 20 21 21 21 20 19 17 16 17 17 18 18 19 20
Wind_Speed
44 47 46 50 52 51 53 54 57 62 65 69 76 83 88 90 91 93 94 93 93 93 92 93 89 89 87 84 85 83 83 78 80 79 79 81 81 83 80 77 76 71 69 68 65
46 45 48 51 50 52 55 56 58 58 58 60 70 76 80 89 96 98 100 99 97 96 97 97 96 96 94 92 87 88 82 81 87 85 86 84 83 83 83 81 80 77 74 72 68
47 49 54 53 54 56 56 57 59 57 58 60 63 64 67 72 78 80 87 94 95 98 103 104 103 102 102 100 94 91 86 89 92 91 87 91 88 86 84 85 84 84 80 79 76
50 52 54 58 65 67 66 63 55 58 54 54 58 59 61 65 72 74 77 82 85 88 94 103 111 110 110 105 103 102 96 100 96 95 92 95 94 86 89 86 87 86 87 83 80
57 56 59 64 71 71 74 74 67 63 60 54 50 53 57 63 66 76 76 79 85 90 95 98 102 104 99 103 101 102 101 107 108 101 103 100 97 95 93 86 87 88 91 89 87
63 64 67 70 73 83 80 86 81 79 73 60 56 54 59 62 68 74 79 86 85 88 89 90 91 94 85 90 94 100 106 113 112 109 110 106 103 98 96 92 91 91 91 93 91
65 73 72 77 79 83 87 88 92 96 82 73 63 61 62 63 71 78 82 85 83 84 82 80 80 83 77 75 79 92 103 113 113 114 115 114 110 103 97 97 94 96 93 92 95
72 78 78 81 84 85 89 92 97 102 83 80 68 65 67 68 71 77 78 79 77 78 76 73 72 71 68 68 73 88 97 106 107 114 118 119 113 110 105 102 103 99 98 94 92
78 80 81 86 89 89 93 99 100 102 94 81 72 72 70 70 73 76 72 73 72 71 69 67 67 68 69 65 71 83 87 95 99 109 118 122 117 119 113 108 105 104 102 98 96
81 80 78 88 90 91 97 101 103 108 109 85 80 77 73 75 75 75 67 63 66 66 64 62 62 62 63 63 62 68 78 91 97 102 114 121 121 125 119 114 110 108 106 106 100
84 81 84 92 90 97 101 99 104 107 111 87 86 79 76 78 76 73 68 61 62 62 60 59 57 60 65 66 70 73 78 90 96 100 109 117 126 127 122 121 118 114 111 106 106
85 90 88 93 94 99 103 102 109 110 104 88 86 79 75 75 70 68 62 58 55 53 52 51 56 59 63 66 70 70 75 82 93 96 103 109 117 124 125 125 122 118 116 113 109
87 92 92 96 97 97 102 106 111 115 117 97 84 79 78 72 66 60 56 51 46 42 42 44 48 51 56 62 68 70 72 79 84 88 97 102 107 115 123 125 124 123 120 117 115
89 96 95 97 95 97 104 107 114 122 124 102 91 81 74 68 62 52 46 42 36 34 35 37 41 46 53 56 63 69 73 77 81 85 91 97 101 105 112 121 127 126 124 123 121
93 96 97 99 95 99 108 109 117 124 125 110 94 83 72 66 55 45 40 34 30 30 29 32 38 44 49 52 59 66 71 75 77 83 89 92 94 98 101 107 115 122 127 125 124
95 96 97 98 99 104 110 111 121 126 126 116 95 83 69 61 52 42 34 28 26 25 25 30 35 40 44 48 54 62 67 70 74 78 82 86 90 92 95 98 104 110 118 124 126
95 95 99 98 101 107 111 117 122 127 125 114 95 83 66 59 49 39 30 26 23 20 21 26 31 37 41 45 50 55 62 68 72 70 74 80 85 88 87 92 94 98 104 110 116
94 98 100 100 105 109 112 119 121 129 129 109 92 77 63 57 46 35 27 23 19 18 18 23 29 36 41 43 47 52 57 63 63 64 68 77 79 81 86 88 89 91 94 99 103
96 100 101 100 105 110 113 118 123 130 126 107 90 72 61 54 44 33 25 19 17 15 16 21 27 33 38 39 39 42 49 55 58 63 66 72 76 78 82 84 85 86 86 91 96
96 98 100 100 104 109 115 118 124 129 129 104 86 69 59 52 42 30 23 17 15 16 15 19 27 31 35 38 38 40 43 48 54 58 63 66 71 73 76 79 81 82 83 85 88
92 95 99 100 102 110 116 119 124 125 127 102 81 67 58 49 39 29 20 18 15 16 15 18 25 30 35 38 36 36 38 43 48 54 60 64 65 70 73 75 78 80 80 80 83
89 96 100 98 103 110 116 120 124 126 123 99 79 66 56 45 36 27 19 16 13 14 15 17 23 30 35 34 32 33 35 39 44 50 56 59 63 65 68 71 73 76 78 79 80
94 96 98 98 103 109 115 119 123 125 119 96 77 63 54 42 34 26 17 12 11 13 16 17 21 28 33 35 33 32 32 36 40 44 49 55 59 62 63 64 66 70 73 76 78
92 95 97 99 103 109 114 118 123 123 117 95 73 64 51 39 31 24 16 11 10 11 16 20 21 26 31 32 32 30 30 31 35 38 42 49 53 56 56 56 58 61 66 69 71
94 96 95 99 102 109 112 119 122 121 112 90 71 63 49 37 30 23 16 11 10 10 14 19 22 24 28 31 32 30 28 28 30 32 35 40 46 49 51 52 53 56 61 64 66
94 95 94 99 101 107 111 117 120 124 107 87 67 59 47 38 30 22 14 10 8 9 14 18 22 24 26 30 32 31 29 28 28 29 30 34 38 43 47 49 51 52 54 57 59
94 94 95 97 99 106 113 114 124 123 104 82 64 57 46 38 28 18 11 8 8 9 12 15 18 19 21 26 30 32 31 27 26 27 29 32 35 39 42 45 47 48 49 50 51
Wind_Direction
318 314 313 307 303 296 295 293 286 289 281 274 273 267 264 264 262 261 262 258 257 257 254 253 249 249 245 243 242 240 237 233 230 230 229 232 233 232 231 228 228 228 226 228 228
323 325 322 319 312 311 309 307 304 305 294 284 280 277 276 271 267 265 264 261 261 260 258 256 252 247 245 240 237 238 236 230 228 229 230 231 232 230 232 230 228 228 228 227 227
335 332 330 329 329 330 324 325 316 308 309 297 290 288 285 282 280 275 272 266 262 260 258 255 253 250 247 241 237 235 231 230 230 228 229 229 231 229 229 231 229 228 228 228 228
336 343 342 347 347 344 341 331 326 327 316 313 296 290 286 282 277 270 266 264 260 257 255 248 248 248 247 244 238 232 228 227 229 230 230 229 229 230 231 230 233 229 228 228 229
338 340 343 345 349 347 345 344 336 333 326 320 309 296 287 280 276 274 268 261 257 253 252 251 250 249 250 247 243 238 230 228 228 227 229 230 227 228 229 229 230 233 230 229 228
337 340 341 347 346 346 343 345 344 344 335 329 323 310 297 286 278 273 271 269 265 261 260 259 257 255 252 249 245 240 232 230 228 226 227 229 230 228 229 228 230 231 233 231 229
340 342 343 345 344 343 344 345 344 344 338 339 331 320 309 295 281 275 272 274 275 272 269 265 261 258 253 243 236 236 234 232 227 226 228 229 229 229 228 228 229 231 231 232 232
339 340 340 342 344 342 343 344 344 342 340 342 333 322 312 298 288 283 281 279 277 274 269 265 260 255 250 239 234 232 233 232 227 228 226 228 229 230 228 230 229 229 230 231 232
337 337 337 341 342 340 342 343 342 340 341 342 333 325 313 302 293 290 287 282 278 273 267 262 256 250 246 241 230 228 229 231 227 226 227 227 227 228 229 229 229 230 229 230 232
337 337 337 339 338 338 339 341 341 342 341 343 337 327 313 306 301 298 291 283 276 271 267 259 254 248 243 240 234 228 224 227 227 225 224 225 226 229 229 229 228 229 230 230 231
337 336 334 337 337 336 336 339 340 344 342 345 336 327 317 309 304 300 294 287 277 270 264 258 252 244 237 232 227 222 221 222 223 222 224 223 223 225 226 227 229 227 228 229 231
334 335 334 338 336 337 335 338 339 344 346 343 335 323 315 310 306 301 296 288 279 269 262 254 246 239 235 230 229 226 223 221 222 222 224 224 225 224 224 225 226 227 228 228 228
330 333 335 336 336 335 336 339 340 344 347 345 334 325 322 314 310 303 296 287 278 268 260 249 241 235 233 231 228 228 225 225 223 223 224 225 225 226 224 224 226 226 226 227 228
329 331 335 334 335 334 334 338 340 343 349 344 336 329 324 318 313 308 299 289 277 266 254 243 234 230 228 227 227 224 223 224 223 223 223 225 226 226 225 226 226 227 226 227 228
327 329 333 335 335 334 335 337 339 342 348 344 337 331 327 323 318 311 303 293 277 264 250 241 231 225 222 221 222 222 221 223 222 221 222 223 224 225 226 227 227 228 228 228 229
326 328 331 335 334 334 336 339 340 343 345 346 337 332 328 328 325 318 310 296 278 265 249 236 227 223 221 222 222 222 221 222 224 222 222 223 223 224 224 225 227 228 228 230 231
325 327 329 333 333 334 337 339 340 343 345 346 338 331 331 333 330 322 312 297 282 264 244 231 222 221 219 219 221 222 220 221 223 224 222 223 225 226 225 226 227 228 228 230 232
324 325 327 330 331 334 338 339 341 342 346 344 338 331 336 336 332 324 312 298 281 262 242 230 220 217 215 217 219 219 220 221 222 221 220 223 224 225 225 226 226 228 228 229 231
320 323 326 330 330 333 338 339 342 343 347 343 337 335 338 338 333 326 314 299 278 263 250 231 221 215 215 217 220 221 220 222 219 220 219 222 222 222 223 225 226 228 229 229 229
317 322 324 328 330 333 336 339 340 342 346 343 338 337 340 339 333 327 315 297 278 266 251 236 221 216 213 215 218 219 221 219 218 217 219 221 223 224 224 225 226 227 228 228 229
319 323 325 329 332 333 335 338 340 342 345 342 339 340 341 339 332 325 316 294 276 264 248 238 221 214 211 212 213 214 216 218 219 218 219 221 222 223 225 226 227 228 229 231 231
318 322 325 330 333 332 334 337 339 342 346 343 340 341 340 339 333 324 315 292 273 255 242 229 220 212 210 210 209 214 212 214 215 217 217 219 221 223 225 227 228 230 231 231 233
319 321 324 329 331 331 333 336 338 341 346 343 340 342 339 338 334 326 311 290 273 251 231 223 217 212 209 207 208 212 215 216 216 217 218 217 218 221 224 226 228 229 230 231 233
320 322 325 327 330 330 332 335 337 341 346 342 341 343 339 336 333 326 307 293 279 256 220 216 210 210 210 210 209 211 213 216 217 217 217 216 218 219 223 225 227 228 230 232 235
319 320 323 326 330 330 332 335 338 342 346 342 342 343 337 334 330 323 307 290 282 257 216 212 208 206 208 206 205 207 208 212 214 215 216 216 216 218 220 222 225 226 227 230 232
318 319 322 326 330 330 332 336 338 340 345 342 342 343 337 333 327 316 302 285 271 250 215 211 209 207 203 204 205 207 206 206 207 208 211 215 217 218 220 222 224 226 228 230 233
318 319 321 326 329 329 331 336 337 339 345 342 343 345 337 334 326 315 295 272 255 244 221 210 208 209 208 206 203 204 202 200 199 199 204 208 210 214 218 221 223 225 228 231 234